#timestamp,LO_Frequency,Hit 
1498564815.2,286046991.5,N
1498564835.0,286046988.8,N
1498564835.9,286046988.8,N
1498564855.8,286046989.9,N
1498564875.6,286046987.0,N
1498564895.4,286046987.7,N
1498564915.3,286046985.3,N
1498564935.1,286046985.7,N
1498564936.0,286046985.7,N
1498564955.8,286046986.2,N
1498564975.7,286046986.3,N
1498564995.5,286046984.1,N
1498565015.3,286046984.2,N
1498565035.2,286046984.9,N
1498565055.9,286046986.7,N
1498565075.7,286046985.7,N
1498565095.5,286046986.5,N
1498565115.4,286046983.9,N
1498565135.2,286046984.7,N
1498565155.0,286046984.9,N
1498565155.9,286046984.9,N
1498565175.8,286046984.8,N
1498565195.6,286046984.5,N
1498565215.4,286046982.6,N
1498565235.3,286046983.1,N
1498565255.1,286046981.2,N
1498565275.8,286046981.9,N
1498565295.7,286046979.1,N
1498565315.5,286046980.1,N
1498565335.3,286046977.3,N
1498565355.2,286046980.3,N
1498565375.9,286046980.1,N
1498565395.7,286046980.0,N
1498565415.6,286046977.7,N
1498565435.4,286046978.0,N
1498565455.2,286046978.4,N
1498565475.0,286046978.2,N
1498565475.9,286046978.2,N
1498565495.8,286046975.9,N
1498565515.6,286046975.9,N
1498565535.4,286046976.3,N
1498565555.3,286046976.1,N
1498565575.1,286046974.2,N
1498565595.8,286046974.3,N
1498565615.7,286046974.8,N
1498565635.5,286046975.0,N
1498565655.3,286046975.5,N
1498565675.2,286046972.6,N
1498565695.9,286046973.0,N
1498565715.7,286046972.5,N
1498565735.6,286046973.2,N
1498565755.4,286046971.3,N
1498565775.2,286046972.2,N
1498565795.0,286046969.4,N
1498565795.9,286046969.4,N
1498565815.8,286046969.7,N
1498565835.6,286046969.3,N
1498565855.4,286046972.2,N
1498565875.3,286046969.4,N
1498565895.1,286046970.0,N
1498565915.8,286046969.6,N
1498565935.7,286046968.1,N
1498565955.5,286046967.9,N
1498565975.3,286046967.9,N
1498565995.2,286046968.6,N
1498566015.9,286046968.0,N
1498566035.7,286046968.6,N
1498566055.6,286046966.5,N
1498566075.4,286046966.6,N
1498566095.2,286046966.8,N
1498566115.0,286046967.3,N
1498566115.9,286046967.3,N
1498566135.8,286046967.3,N
1498566155.6,286046964.5,N
1498566175.4,286046964.5,N
1498566195.3,286046965.1,N
1498566215.1,286046964.8,N
1498566235.8,286046967.6,N
1498566255.7,286046965.5,N
1498566275.5,286046966.0,N
1498566295.3,286046965.4,N
1498566315.2,286046962.9,N
1498566335.9,286046963.3,N
1498566355.7,286046963.5,N
1498566375.6,286046963.8,N
1498566395.4,286046961.7,Y
1498566415.2,286046996.4,N
1498566435.1,286046995.7,N
1498566436.0,286046995.7,N
1498566455.8,286046996.3,N
1498566475.6,286046996.2,N
1498566495.4,286046993.3,N
1498566515.3,286046996.3,N
1498566535.1,286046993.5,N
1498566555.8,286046993.5,N
1498566575.7,286046994.5,N
1498566595.5,286046994.7,N
1498566615.3,286046991.9,N
1498566635.2,286046992.3,N
1498566655.9,286046993.0,N
1498566675.7,286046992.8,N
1498566695.6,286046993.2,N
1498566715.4,286046990.4,N
1498566735.2,286046990.7,N
1498566755.1,286046988.5,N
1498566756.0,286046988.5,N
1498566775.8,286046988.6,N
1498566795.6,286046991.5,N
1498566815.5,286046989.3,N
1498566835.3,286046988.8,N
1498566855.1,286046989.1,N
1498566875.8,286046988.9,N
1498566895.7,286046988.8,N
1498566915.5,286046988.9,N
1498566935.3,286046989.1,N
1498566955.2,286046989.7,N
1498566975.9,286046988.7,N
1498566995.7,286046988.7,N
1498567015.6,286046988.8,N
1498567035.4,286046989.6,N
1498567055.2,286046989.6,N
1498567075.1,286046987.6,N
1498567076.0,286046987.6,N
1498567095.8,286046988.1,N
1498567115.6,286046985.3,N
1498567135.4,286046985.9,N
1498567155.3,286046984.4,N
1498567175.1,286046983.9,N
1498567195.8,286046984.4,N
1498567215.7,286046986.8,N
1498567235.5,286046986.8,N
1498567255.3,286046984.0,N
1498567275.2,286046983.8,N
1498567295.9,286046983.8,N
1498567315.7,286046983.8,N
1498567335.6,286046984.6,N
1498567355.4,286046982.2,N
1498567375.2,286046984.9,N
1498567395.0,286046985.1,N
1498567396.0,286046985.1,N
1498567415.8,286046982.4,N
1498567435.6,286046985.2,N
1498567455.4,286046982.3,N
1498567475.3,286046982.5,N
1498567495.1,286046982.9,N
1498567515.8,286046980.7,N
1498567535.7,286046981.7,N
1498567555.5,286046981.3,N
1498567575.3,286046981.1,N
1498567595.2,286046980.8,N
1498567615.9,286046980.8,N
1498567635.7,286046979.6,N
1498567655.6,286046978.6,N
1498567675.4,286046977.8,N
1498567695.2,286046977.9,N
1498567715.0,286046978.0,N
1498567716.0,286046978.0,N
1498567735.8,286046978.2,N
1498567755.6,286046978.1,N
1498567775.4,286046975.8,N
1498567795.3,286046975.9,N
1498567815.1,286046974.2,N
1498567835.8,286046974.1,N
1498567855.7,286046974.6,N
1498567875.5,286046975.3,N
1498567895.3,286046975.1,N
1498567915.2,286046975.0,N
1498567935.9,286046975.6,N
1498567955.7,286046973.2,N
1498567975.6,286046973.4,N
1498567995.4,286046971.1,N
1498568015.2,286046972.1,N
1498568035.0,286046971.7,N
1498568035.9,286046971.7,N
1498568055.8,286046972.4,N
1498568075.6,286046972.2,N
1498568095.4,286046969.8,N
1498568115.3,286046968.4,N
1498568135.1,286046970.6,N
1498568136.0,286046970.6,N
1498568155.8,286046968.3,N
1498568175.7,286046968.1,N
1498568195.5,286046969.0,N
1498568215.3,286046967.6,N
1498568235.2,286046966.7,N
1498568255.9,286046966.2,N
1498568275.7,286046964.8,N
1498568295.5,286046967.0,N
1498568315.4,286046964.9,N
1498568335.2,286046964.7,N
1498568355.0,286046964.5,N
1498568355.9,286046964.5,N
1498568375.8,286046964.7,N
1498568395.6,286046964.5,N
